EW9394 Weather Reports


Display with metric or nautical units.
time (UTC)temp
F
wind
direction
speed
MPH
gust
MPH
rain 1hr
in
rain 24hr
in
rain mn
in
humidity
%
barometer
mb
20260903123230 77 175 0.0 1.0 0.00 0.00 0.00 95 1014.8
20260903122729 77 129 2.0 3.0 0.00 0.00 0.00 95 1014.9
20260903122224 77 114 2.0 3.0 0.00 0.00 0.00 95 1015.2
20260903121722 77 153 2.0 3.0 0.00 0.00 0.00 95 1015.0
20260903121219 77 117 2.0 2.0 0.00 0.00 0.00 95 1014.8
20260903120718 77 137 1.0 2.0 0.00 0.00 0.00 94 1014.8
20260903120212 77 128 1.0 1.0 0.00 0.00 0.00 94 1014.7
20260903115711 77 140 2.0 2.0 0.00 0.00 0.00 94 1014.8
20260903115207 77 191 2.0 2.0 0.00 0.00 0.00 94 1014.6
20260903114707 77 129 1.0 2.0 0.00 0.00 0.00 94 1014.4
20260903114202 77 151 1.0 1.0 0.00 0.00 0.00 94 1014.5
20260903113657 77 188 0.0 0.0 0.00 0.00 0.00 94 1014.3
20260903113154 77 203 0.0 0.0 0.00 0.00 0.00 94 1014.5
20260903112649 77 191 0.0 0.0 0.00 0.00 0.00 95 1014.6
20260903112144 76 193 0.0 0.0 0.00 0.00 0.00 95 1014.8
20260903111643 76 196 1.0 1.0 0.00 0.00 0.00 95 1014.5
20260903111138 77 190 0.0 0.0 0.00 0.00 0.00 95 1014.6
20260903110634 77 189 1.0 2.0 0.00 0.00 0.00 95 1014.6
20260903110130 77 177 1.0 1.0 0.00 0.00 0.00 95 1014.9
20260903105624 77 200 3.0 3.0 0.00 0.00 0.00 95 1014.6
20260903105120 77 157 0.0 1.0 0.00 0.00 0.00 95 1014.5
20260903104619 76 169 2.0 2.0 0.00 0.00 0.00 95 1014.7
20260903104115 76 170 1.0 1.0 0.00 0.00 0.00 95 1014.4
20260903103610 76 196 1.0 1.0 0.00 0.00 0.00 95 1014.5
20260903103106 76 179 2.0 2.0 0.00 0.00 0.00 95 1014.3
20260903102601 76 151 2.0 2.0 0.00 0.00 0.00 94 1014.3
20260903102100 76 190 1.0 2.0 0.00 0.00 0.00 94 1014.4
20260903101556 76 158 1.0 1.0 0.00 0.00 0.00 94 1014.1
20260903101051 77 194 0.0 1.0 0.00 0.00 0.00 94 1014.0
20260903100551 77 171 0.0 0.0 0.00 0.00 0.00 93 1014.4
20260903100050 77 113 1.0 2.0 0.00 0.00 0.00 93 1014.1
20260903095548 77 172 2.0 2.0 0.00 0.00 0.00 93 1014.4
20260903095043 77 133 1.0 1.0 0.00 0.00 0.00 92 1014.4
20260903094543 77 161 1.0 2.0 0.00 0.00 0.00 92 1014.5
20260903094039 77 139 2.0 3.0 0.00 0.00 0.00 92 1014.1
20260903093539 77 190 2.0 2.0 0.00 0.00 0.00 93 1014.3
20260903093034 77 148 2.0 2.0 0.00 0.00 0.00 93 1014.4
20260903092533 76 182 1.0 3.0 0.00 0.00 0.00 94 1014.1
20260903092028 76 193 2.0 2.0 0.00 0.00 0.00 95 1014.1
20260903091526 76 177 2.0 2.0 0.00 0.00 0.00 95 1014.0
20260903091021 76 178 1.0 3.0 0.00 0.00 0.00 96 1014.1
20260903090517 76 231 1.0 1.0 0.00 0.00 0.00 96 1014.0
20260903090016 76 188 3.0 5.0 0.00 0.00 0.00 96 1014.3
20260903085514 77 200 4.0 5.0 0.00 0.00 0.00 96 1014.1
20260903085010 77 132 0.0 1.0 0.00 0.00 0.00 96 1014.0
20260903084508 77 190 1.0 1.0 0.00 0.00 0.00 96 1013.8
20260903084004 77 192 1.0 2.0 0.00 0.00 0.00 96 1014.0
20260903083459 77 197 0.0 0.0 0.00 0.00 0.00 96 1014.0
20260903082958 77 176 1.0 1.0 0.00 0.00 0.00 95 1013.9
20260903082453 77 197 1.0 1.0 0.00 0.00 0.00 95 1014.0
20260903081948 77 185 1.0 1.0 0.00 0.00 0.00 95 1013.8
20260903081443 77 184 0.0 0.0 0.00 0.00 0.00 94 1013.8
20260903080939 77 189 0.0 0.0 0.00 0.00 0.00 94 1013.9
20260903080435 77 202 0.0 0.0 0.00 0.00 0.00 94 1014.0
20260903075931 77 188 0.0 1.0 0.00 0.00 0.00 93 1014.0
20260903075426 77 107 0.0 0.0 0.00 0.00 0.00 93 1014.3
20260903074921 77 191 0.0 0.0 0.00 0.00 0.00 92 1013.9
20260903074420 77 181 0.0 0.0 0.00 0.00 0.00 92 1013.7
20260903073916 77 199 0.0 0.0 0.00 0.00 0.00 92 1013.5
20260903073411 77 178 0.0 0.0 0.00 0.00 0.00 91 1013.8
20260903072907 78 157 0.0 0.0 0.00 0.00 0.00 91 1014.0
20260903072402 78 54 1.0 1.0 0.00 0.00 0.00 90 1013.9
20260903071859 78 103 1.0 2.0 0.00 0.00 0.00 88 1014.3
20260903071355 79 51 1.0 1.0 0.00 0.00 0.00 87 1013.9
20260903070850 79 58 1.0 1.0 0.00 0.00 0.00 85 1013.9
20260903070345 80 59 1.0 2.0 0.00 0.00 0.00 84 1013.7
20260903065840 80 79 0.0 1.0 0.00 0.00 0.00 83 1013.7
20260903065339 80 259 1.0 1.0 0.00 0.00 0.00 83 1013.9
20260903064838 80 115 1.0 1.0 0.00 0.00 0.00 83 1013.8
20260903064334 80 68 1.0 2.0 0.00 0.00 0.00 83 1014.0
20260903063830 80 189 0.0 1.0 0.00 0.00 0.00 83 1014.4
20260903063325 80 190 1.0 1.0 0.00 0.00 0.00 83 1014.1
20260903062821 80 112 0.0 0.0 0.00 0.00 0.00 83 1014.0
20260903062320 80 191 0.0 1.0 0.00 0.00 0.00 84 1014.0
20260903061817 79 75 0.0 1.0 0.00 0.00 0.00 84 1014.1
20260903061315 79 81 1.0 1.0 0.00 0.00 0.00 84 1014.0
20260903060812 79 196 0.0 1.0 0.00 0.00 0.00 84 1014.1
20260903060311 79 196 0.0 0.0 0.00 0.00 0.00 84 1014.7
20260903055809 79 94 1.0 2.0 0.00 0.00 0.00 84 1014.3
20260903055308 80 108 0.0 1.0 0.00 0.00 0.00 83 1014.5
20260903054803 80 139 1.0 1.0 0.00 0.00 0.00 83 1014.6
20260903054303 80 61 1.0 1.0 0.00 0.00 0.00 82 1014.7
20260903053800 80 61 1.0 1.0 0.00 0.00 0.00 81 1014.7
20260903053254 80 84 0.0 1.0 0.00 0.00 0.00 80 1014.4
20260903052750 80 51 1.0 1.0 0.00 0.00 0.00 80 1014.5
20260903052245 80 164 1.0 1.0 0.00 0.00 0.00 79 1014.5
20260903051740 80 90 1.0 2.0 0.00 0.00 0.00 79 1014.6
20260903051236 80 63 0.0 1.0 0.00 0.00 0.00 79 1014.6
20260903050731 80 148 1.0 1.0 0.00 0.00 0.00 79 1014.9
20260903050230 81 41 1.0 2.0 0.00 0.00 0.00 78 1014.9
20260903045725 81 120 1.0 2.0 0.00 0.09 0.09 78 1014.9
20260903045221 81 82 2.0 3.0 0.00 0.09 0.09 78 1015.0
20260903044717 81 61 1.0 1.0 0.00 0.09 0.09 77 1014.9
20260903044212 81 62 1.0 1.0 0.00 0.09 0.09 77 1014.9
20260903043710 81 348 2.0 2.0 0.00 0.09 0.09 76 1015.1
20260903043209 82 54 1.0 1.0 0.00 0.09 0.09 76 1014.7
20260903042708 82 105 2.0 2.0 0.00 0.09 0.09 75 1014.6
20260903042203 82 79 1.0 1.0 0.00 0.09 0.09 75 1014.7
20260903041700 82 78 1.0 3.0 0.00 0.09 0.09 74 1014.8
20260903041155 82 56 2.0 3.0 0.00 0.09 0.09 74 1014.7
20260903040654 82 82 2.0 3.0 0.00 0.09 0.09 74 1014.9
20260903040150 83 52 2.0 2.0 0.00 0.09 0.09 74 1015.0
20260903035646 83 78 0.0 1.0 0.00 0.09 0.09 73 1014.9
20260903035141 83 44 1.0 2.0 0.00 0.09 0.09 73 1014.9
20260903034636 83 139 1.0 2.0 0.00 0.09 0.09 73 1014.7
20260903034131 83 112 1.0 2.0 0.00 0.09 0.09 73 1014.6
20260903033627 83 83 0.0 1.0 0.00 0.09 0.09 72 1014.9
20260903033126 84 110 1.0 2.0 0.00 0.09 0.09 72 1014.6
20260903032622 84 67 0.0 1.0 0.00 0.09 0.09 71 1014.6
20260903032117 84 166 0.0 0.0 0.00 0.09 0.09 71 1014.7
20260903031612 84 144 1.0 2.0 0.00 0.09 0.09 70 1014.6
20260903031107 84 185 1.0 1.0 0.00 0.09 0.09 70 1014.7
20260903030603 84 114 3.0 3.0 0.00 0.09 0.09 69 1015.0
20260903030058 84 192 3.0 7.0 0.00 0.09 0.09 69 1014.7
20260903025553 85 155 2.0 2.0 0.00 0.09 0.09 69 1014.6
20260903025049 85 150 1.0 1.0 0.00 0.09 0.09 68 1014.6
20260903024549 85 135 4.0 6.0 0.00 0.09 0.09 68 1014.4
20260903024043 85 75 1.0 2.0 0.00 0.09 0.09 67 1014.5
20260903023539 86 125 3.0 3.0 0.00 0.09 0.09 66 1014.5
20260903023034 86 125 5.0 6.0 0.00 0.09 0.09 66 1014.5
20260903022533 86 120 1.0 2.0 0.00 0.09 0.09 66 1014.5
20260903022032 86 55 2.0 3.0 0.00 0.09 0.09 65 1014.1
20260903021527 86 134 5.0 6.0 0.00 0.09 0.09 65 1014.1
20260903021022 86 91 4.0 5.0 0.00 0.09 0.09 64 1014.1
20260903020518 87 117 5.0 6.0 0.00 0.09 0.09 64 1013.8
20260903020017 87 95 6.0 7.0 0.00 0.09 0.09 63 1013.9
20260903015513 88 59 4.0 5.0 0.00 0.09 0.09 63 1013.8
20260903015008 88 157 2.0 2.0 0.00 0.09 0.09 62 1013.8
20260903014502 88 112 3.0 3.0 0.00 0.09 0.09 62 1013.5
20260903013957 89 187 1.0 2.0 0.00 0.09 0.09 61 1013.7
20260903013457 89 182 0.0 0.0 0.00 0.09 0.09 61 1013.3
20260903012956 89 134 3.0 5.0 0.00 0.09 0.09 59 1013.3
20260903012455 89 83 0.0 1.0 0.00 0.09 0.09 60 1013.1
20260903011954 89 175 1.0 1.0 0.00 0.09 0.09 59 1013.1
20260903011449 89 184 0.0 0.0 0.00 0.09 0.09 59 1013.0
20260903010944 89 109 1.0 1.0 0.00 0.09 0.09 59 1012.9
20260903010439 89 144 0.0 1.0 0.00 0.09 0.09 59 1013.0
20260903005937 89 100 0.0 0.0 0.00 0.09 0.09 59 1013.0
20260903005433 89 76 1.0 1.0 0.00 0.09 0.09 60 1013.1
20260903004930 89 165 0.0 1.0 0.00 0.09 0.09 60 1013.1
20260903004430 89 138 0.0 0.0 0.00 0.09 0.09 61 1013.0
20260903003925 89 183 1.0 1.0 0.00 0.09 0.09 62 1013.0
20260903003425 89 157 0.0 0.0 0.00 0.09 0.09 64 1013.0
20260903002920 89 87 1.0 1.0 0.00 0.09 0.09 64 1013.0
20260903002415 89 100 1.0 2.0 0.00 0.09 0.09 66 1012.9
20260903001915 89 183 0.0 0.0 0.00 0.09 0.09 66 1012.7
20260903001410 89 182 0.0 1.0 0.00 0.09 0.09 66 1012.8
20260903000909 89 134 1.0 1.0 0.00 0.09 0.09 65 1013.0
20260903000404 89 47 1.0 2.0 0.00 0.09 0.09 66 1012.8
20260902235902 88 70 1.0 1.0 0.00 0.09 0.09 68 1012.7
20260902235358 85 100 0.0 0.0 0.00 0.09 0.09 76 1012.9
20260902234852 84 199 0.0 0.0 0.00 0.09 0.09 82 1012.8
20260902234352 83 199 0.0 0.0 0.00 0.09 0.09 83 1012.7
20260902233850 81 175 0.0 0.0 0.00 0.09 0.09 89 1012.7
20260902233345 80 183 0.0 0.0 0.00 0.09 0.09 93 1012.6
20260902232844 79 152 0.0 0.0 0.00 0.09 0.09 94 1012.8
20260902232339 80 202 0.0 0.0 0.00 0.09 0.09 94 1012.7
20260902231838 80 201 0.0 0.0 0.00 0.09 0.09 94 1012.8
20260902231333 80 200 0.0 0.0 0.00 0.09 0.09 93 1012.7
20260902230828 79 196 0.0 0.0 0.00 0.09 0.09 91 1012.7
20260902230328 79 187 0.0 0.0 0.00 0.09 0.09 89 1012.8
20260902225822 80 216 6.0 9.0 0.00 0.09 0.09 87 1012.8
20260902225317 80 181 3.0 3.0 0.19 0.09 0.09 87 1013.1
20260902224816 82 203 2.0 2.0 0.54 0.09 0.09 84 1012.8
20260902224311 85 171 4.0 5.0 0.35 0.06 0.06 76 1012.7
20260902223808 93 36 7.0 10.0 0.00 0.00 0.00 58 1012.7
20260902223307 100 90 5.0 8.0 0.00 0.00 0.00 46 1012.4
20260902222801 100 69 0.0 1.0 0.00 0.00 0.00 43 1012.3
20260902222300 100 164 3.0 3.0 0.00 0.00 0.00 42 1012.2
20260902221755 100 78 1.0 1.0 0.00 0.00 0.00 42 1012.2
20260902221254 99 155 1.0 1.0 0.00 0.00 0.00 43 1012.6
20260902220750 98 224 1.0 1.0 0.00 0.00 0.00 44 1012.4
20260902220249 98 134 1.0 1.0 0.00 0.00 0.00 45 1012.6
20260902215745 99 65 1.0 2.0 0.00 0.00 0.00 43 1012.5
20260902215240 100 245 0.0 1.0 0.00 0.00 0.00 43 1012.6
20260902214736 101 125 1.0 1.0 0.00 0.00 0.00 42 1012.5
20260902214235 101 197 1.0 1.0 0.00 0.00 0.00 41 1012.5
20260902213731 100 204 0.0 0.0 0.00 0.00 0.00 42 1012.5
20260902213230 99 206 0.0 1.0 0.00 0.00 0.00 42 1012.7
20260902212730 100 59 3.0 5.0 0.00 0.00 0.00 42 1012.8
20260902212226 101 34 5.0 9.0 0.00 0.00 0.00 41 1012.7
20260902211722 100 119 2.0 2.0 0.00 0.00 0.00 42 1012.9
20260902211218 101 62 1.0 1.0 0.00 0.00 0.00 42 1012.9
20260902210712 100 133 2.0 2.0 0.00 0.00 0.00 42 1012.9
20260902210207 101 228 2.0 3.0 0.00 0.00 0.00 42 1012.9
20260902205705 100 309 2.0 2.0 0.00 0.00 0.00 42 1012.7
20260902205201 100 7 5.0 7.0 0.00 0.00 0.00 42 1013.2
20260902204656 100 114 1.0 2.0 0.00 0.00 0.00 43 1013.2
20260902204150 100 339 3.0 3.0 0.00 0.00 0.00 43 1013.4
20260902203645 99 136 1.0 2.0 0.00 0.00 0.00 43 1013.5
20260902203140 100 209 3.0 9.0 0.00 0.00 0.00 43 1013.4
20260902202636 100 290 5.0 6.0 0.00 0.00 0.00 43 1013.4
20260902202132 100 208 2.0 3.0 0.00 0.00 0.00 42 1013.6
20260902201628 100 114 5.0 8.0 0.00 0.00 0.00 43 1013.8
20260902201127 100 175 3.0 3.0 0.00 0.00 0.00 43 1013.6
20260902200622 100 109 4.0 8.0 0.00 0.00 0.00 43 1014.0
20260902200118 99 222 1.0 2.0 0.00 0.00 0.00 43 1013.9
20260902195613 99 317 1.0 5.0 0.00 0.00 0.00 45 1014.0
20260902195113 98 233 2.0 3.0 0.00 0.00 0.00 45 1014.1
20260902194612 99 5 5.0 8.0 0.00 0.00 0.00 44 1014.4
20260902194107 99 318 3.0 3.0 0.00 0.00 0.00 44 1014.3
20260902193603 99 0 5.0 6.0 0.00 0.00 0.00 43 1014.4
20260902193103 99 218 1.0 2.0 0.00 0.00 0.00 44 1014.7
20260902192601 99 304 7.0 9.0 0.00 0.00 0.00 45 1014.7
20260902192100 100 67 1.0 1.0 0.00 0.00 0.00 45 1014.7
20260902191555 99 222 2.0 3.0 0.00 0.00 0.00 44 1014.8
20260902191050 99 72 1.0 2.0 0.00 0.00 0.00 44 1015.0
20260902190545 98 204 1.0 1.0 0.00 0.00 0.00 45 1014.9
20260902190041 98 120 1.0 1.0 0.00 0.00 0.00 45 1015.1
20260902185537 98 284 3.0 3.0 0.00 0.00 0.00 46 1015.2
20260902185032 98 64 1.0 3.0 0.00 0.00 0.00 46 1015.2
20260902184527 98 182 0.0 0.0 0.00 0.00 0.00 46 1015.3
20260902184022 99 161 0.0 1.0 0.00 0.00 0.00 44 1015.3
20260902183519 98 47 1.0 2.0 0.00 0.00 0.00 46 1015.4
20260902183015 97 51 1.0 1.0 0.00 0.00 0.00 46 1015.5
20260902182511 96 172 2.0 3.0 0.00 0.00 0.00 49 1015.5
20260902182006 97 51 2.0 3.0 0.00 0.00 0.00 49 1015.8
20260902181502 96 70 1.0 1.0 0.00 0.00 0.00 50 1015.7
20260902180956 95 112 0.0 0.0 0.00 0.00 0.00 50 1016.0
20260902180457 96 127 1.0 2.0 0.00 0.00 0.00 50 1016.2
20260902175952 95 74 0.0 2.0 0.00 0.00 0.00 51 1016.4
20260902175447 96 154 1.0 2.0 0.00 0.00 0.00 51 1016.5
20260902174943 95 214 1.0 2.0 0.00 0.00 0.00 52 1016.6
20260902174439 94 161 1.0 1.0 0.00 0.00 0.00 53 1016.6
20260902173935 95 220 0.0 1.0 0.00 0.00 0.00 53 1016.5
20260902173434 95 51 2.0 3.0 0.00 0.00 0.00 53 1016.7
20260902172929 94 79 0.0 1.0 0.00 0.00 0.00 55 1016.6
20260902172428 95 124 1.0 1.0 0.00 0.00 0.00 53 1016.9
20260902171924 93 218 0.0 1.0 0.00 0.00 0.00 56 1017.1
20260902171419 93 197 0.0 0.0 0.00 0.00 0.00 55 1017.0
20260902170915 93 200 0.0 1.0 0.00 0.00 0.00 57 1016.9
20260902170410 92 249 1.0 1.0 0.00 0.00 0.00 58 1017.2
20260902165906 93 199 0.0 0.0 0.00 0.00 0.00 58 1017.4
20260902165405 93 78 2.0 3.0 0.00 0.00 0.00 58 1017.3
20260902164900 93 160 2.0 2.0 0.00 0.00 0.00 57 1017.4
20260902164355 92 142 0.0 0.0 0.00 0.00 0.00 59 1017.3
20260902163854 92 173 1.0 1.0 0.00 0.00 0.00 59 1017.8
20260902163349 92 169 3.0 5.0 0.00 0.00 0.00 59 1017.6
20260902162847 92 96 1.0 2.0 0.00 0.00 0.00 59 1017.5
20260902162342 91 146 0.0 1.0 0.00 0.00 0.00 62 1017.5
20260902161837 91 90 1.0 1.0 0.00 0.00 0.00 61 1017.5
20260902161332 91 151 0.0 1.0 0.00 0.00 0.00 62 1017.7
20260902160828 89 205 0.0 1.0 0.00 0.00 0.00 65 1017.6
20260902160323 90 213 0.0 0.0 0.00 0.00 0.00 64 1017.6
20260902155821 90 159 2.0 2.0 0.00 0.00 0.00 63 1017.5
20260902155320 90 217 1.0 2.0 0.00 0.00 0.00 62 1017.7
20260902154816 89 120 0.0 0.0 0.00 0.00 0.00 64 1017.8
20260902154311 90 138 1.0 2.0 0.00 0.00 0.00 64 1017.8
20260902153810 89 162 0.0 1.0 0.00 0.00 0.00 65 1017.7
20260902153304 89 160 0.0 0.0 0.00 0.00 0.00 66 1017.7
20260902152800 89 199 1.0 1.0 0.00 0.00 0.00 64 1017.6
20260902152256 89 169 1.0 2.0 0.00 0.00 0.00 65 1017.4
20260902151750 89 128 0.0 0.0 0.00 0.00 0.00 67 1017.4
20260902151245 89 165 0.0 0.0 0.00 0.00 0.00 67 1017.5
20260902150740 89 159 1.0 2.0 0.00 0.00 0.00 67 1017.6
20260902150237 88 182 1.0 1.0 0.00 0.00 0.00 67 1017.4
20260902145735 87 97 0.0 1.0 0.00 0.00 0.00 69 1017.3
20260902145231 87 157 2.0 2.0 0.00 0.00 0.00 70 1017.4
20260902144726 87 203 0.0 0.0 0.00 0.00 0.00 70 1017.5
20260902144222 86 122 1.0 1.0 0.00 0.00 0.00 71 1017.3
20260902143717 85 173 1.0 1.0 0.00 0.00 0.00 72 1017.4
20260902143212 85 192 0.0 1.0 0.00 0.00 0.00 72 1017.3
20260902142708 86 196 0.0 0.0 0.00 0.00 0.00 73 1017.6
20260902142204 86 162 0.0 1.0 0.00 0.00 0.00 72 1017.4
20260902141704 85 198 1.0 1.0 0.00 0.00 0.00 73 1017.5
20260902141159 85 182 1.0 2.0 0.00 0.00 0.00 73 1017.3
20260902140654 84 195 1.0 1.0 0.00 0.00 0.00 74 1017.5
20260902140149 84 137 0.0 0.0 0.00 0.00 0.00 73 1017.3
20260902135648 84 175 2.0 2.0 0.00 0.00 0.00 73 1017.2
20260902135143 83 173 0.0 1.0 0.00 0.00 0.00 74 1017.4
20260902134639 83 157 0.0 0.0 0.00 0.00 0.00 76 1017.4
20260902134138 82 176 0.0 0.0 0.00 0.00 0.00 77 1017.4
20260902133633 81 198 0.0 0.0 0.00 0.00 0.00 78 1017.3
20260902133128 81 55 1.0 1.0 0.00 0.00 0.00 78 1016.9
20260902132623 81 190 0.0 0.0 0.00 0.00 0.00 79 1017.4
20260902132118 81 197 0.0 0.0 0.00 0.00 0.00 79 1017.4
20260902131614 81 169 1.0 1.0 0.00 0.00 0.00 79 1017.2
20260902131109 81 199 3.0 3.0 0.00 0.00 0.00 79 1017.2
20260902130605 80 202 1.0 1.0 0.00 0.00 0.00 79 1017.3
20260902125556 80 148 2.0 2.0 0.00 0.00 0.00 79 1017.2
20260902125051 80 193 0.0 0.0 0.00 0.00 0.00 79 1017.1
20260902124548 80 196 0.0 0.0 0.00 0.00 0.00 79 1016.8
20260902124048 79 179 0.0 0.0 0.00 0.00 0.00 80 1017.0
20260902123544 79 186 0.0 1.0 0.00 0.00 0.00 80 1016.7